Location: Newark
(45.4422°N, 16.2769°E)
Time: 02:04:23
(UTC+00:00)

Courier 1B Rocket - Pass Details

Date: 08 December 2019
Orbit: 920 x 1202 km, 28.2° (Epoch: 23 January)

Event Time Altitude Azimuth Distance (km) Brightness Sun altitude
Rises 08:24:38 0° 239° (WSW) 3,627 8.0 14.6°
Reaches altitude 10° 08:28:26 10° 219° (SW) 2,643 7.6 15.0°
Maximum altitude 08:32:00 16° 184° (S) 2,236 8.0 15.3°
Drops below altitude 10° 08:35:31 10° 149° (SSE) 2,604 10.3 15.6°
Sets 08:39:12 0° 128° (SE) 3,545 9.3 16.0°
